{"data":{"norad_id":58386,"epoch":"2026-05-24T22:56:11.548608Z","epoch_age_seconds":79226,"freshness":"FRESH","line1":"1 58386U 23178N   26144.95568922  .00002597  00000+0  88013-4 0  9990","line2":"2 58386  53.1608   6.2287 0001182  76.2089 283.9045 15.34380639141553","mean_motion":15.34380639,"eccentricity":0.0001182,"inclination_deg":53.1608,"raan_deg":6.2287,"arg_perigee_deg":76.2089,"mean_anomaly_deg":283.9045,"bstar":8.8013e-5,"rev_number":14155,"period_min":93.848942263667,"perigee_km":461.95219166606,"apogee_km":463.56937990262,"semimajor_km":6840.8977857843,"source":"CELESTRAK","updated_at":"2026-05-25T13:38:18.614413Z"}}